COSMOS 1037

Satellite information

Favourite Embed

Satellite Type and Status

PAYLOADIN ORBIT

Key statistics

Satellite COSMOS 1037 at a glance.

Uptime

17080

Days in orbit

Revolutions

≈ 12.5

Per day

Orbit

LEO

Low Earth Orbit

Inclination

74.0

Latest

Satellite identification and parameters

Extended collection of information and parameters for COSMOS 1037.

Object identification

Identified? True

Debris? False

Object name: COSMOS 1037

International designator: 1978-091D

Object number (NORAD): 11046

Object ID (CCSDS): 11046

Country: COMMONWEALTH OF INDEPENDENT STATES (CIS)

Current information (Y/N): Y

RCS size: MEDIUM

Orbital parameters

Period: 115.347 minutes

Inclination: 74.0346 deg

SMA: 7849.312 km

Apoapsis: 1480.771 km

Periapsis: 1461.582 km

RAAN: 141.8172 deg

Eccentricy: 0.0012223

Argument of periapsis: 87.4596 deg

Mean anomaly: 336.879 deg

Mean motion: 12.48404739 rev/day

Mean motion (dot): -0.00000023 rev/day2

B* drag term: -0.000049877 1/REarth

Two-line elements (TLE)

Creation date: July 9, 2025, 2:22 a.m.

Reference frame: TEME

Reference center: EARTH

Epoch: July 8, 2025, 8:20 p.m. UTC

TLE line 0: 0 COSMOS 1037

TLE line 1: 1 11046U 78091D 25189.84784796 -.00000023 00000-0 -49877-4 0 9991

TLE line 2: 2 11046 74.0346 141.8172 0012223 87.4596 336.8790 12.48404739131048

Live tracking on map

Real-time ground track for satellite COSMOS 1037.

In-orbit conjunctions

A list of the most updated potential collisions computed for object COSMOS 1037.

Target Orbit TCA Probability of collision Miss distance Type
THORAD DELTA 1 DEB SSO 2024-07-16 11:42:43 0.0001153854 793.0 (m) DEBRIS

Associated space launch

Military communications satellites

COSMOS 1037 was lifted into orbit during the mission ‘Kosmos-3M | Strela-1M 153-160’, on board a Kosmos-3M space rocket.

The launch took place on Oct. 4, 1978, 3:49 a.m. from 132/1 (132L).

For more information about the launch, click the button.

Launch to space Kosmos-3M | Strela-1M 153-160
Kosmos-3M | Strela-1M 153-160

Agency: N/A

Status: Launch Successful

Launch date: Oct. 4, 1978, 3:49 a.m. UTC

Rocket: Kosmos-3M

Launch pad: 132/1 (132L)

Location: Plesetsk Cosmodrome, Russian Federation

...

Latest news about this satellite

There are no fresh news available about this satellite. Check back as we update our databases every day.


Newsletter sign-up

Weekly statistics, charts and insights to help you stay on top of the space industry.